COSMOS 2547 (705K)

Last updated on Sun Jun 21 2026 00:03:28 GMT+0000 (Coordinated Universal Time)

1 46805U 20075A 26171.22947998 .00000062 00000+0 00000+0 0 9990 2 46805 64.5997 192.3739 0009338 239.8081 120.1435 2.13100029 43970
UTC large
Height (km)
Speed (km/s)
/
Latitude / Longitude
Inclination (degrees)
Orbital Period (minutes)
Azimuth
Elevation
Range (km)
Doppler Factor

Next 0 passes for location: London (51.5072 / 0.1276)

No passes found over London.
COSMOS 2547 (705K)